Change the Weather History Date:

Tuesday, January 7, 2014

  Actual Average Record
Temperature  
Mean Temperature 51 °F -  
Max Temperature 54 °F 41 °F 55 °F (2005)
Min Temperature 48 °F 31 °F 3 °F (2009)
Degree Days  
Heating Degree Days 14    
Growing Degree Days 1 (Base 50)    
Moisture  
Dew Point 44 °F    
Average Humidity 71    
Maximum Humidity 87    
Minimum Humidity 57    
Precipitation  
Precipitation 0.00 in - - ()
Sea Level Pressure  
Sea Level Pressure 29.79 in    
Wind  
Wind Speed 14 mph ()    
Max Wind Speed 20 mph    
Max Gust Speed 33 mph    
Visibility 7.6 miles    
Events      
Averages and records for this station are not official NWS values.
T = Trace of Precipitation, MM = Missing Value Source: Averaged Metar Reports

Daily Weather History Graph

Daily Weather History Graph

Search for Another Location

Airport or City:

Trip Planner

Search our weather history database for the weather conditions in past years. The results will help you decide how hot, cold, wet, or windy it might be!

Date:

Astronomy

Jan. 07, 2014 Rise Set
Actual Time 8:44 AM CET 4:48 PM CET
Civil Twilight 8:05 AM CET 5:28 PM CET
Nautical Twilight 7:22 AM CET 6:10 PM CET
Astronomical Twilight 6:42 AM CET 6:51 PM CET
Moon 11:33 AM CET (1/7) No Moon Set
Length of Visible Light 9h 23m
Length of Day
8h 04m
Waxing Crescent, 42% of the Moon is Illuminated
Jan 7
Waxing Crescent
Jan 8
First Quarter
Jan 16
Full
Jan 24
Last Quarter
Jan 30
New

Hourly Weather History & Observations

Time (CET) Temp. Dew Point Humidity Pressure Visibility Wind Dir Wind Speed Gust Speed Precip Events Conditions
12:00 AM 51 °F 44 °F 71% 29.67 in 28 mi SSW 13.4 mph - -   Partly Cloudy
12:25 AM 50.0 °F 44.6 °F 82% 29.65 in 6.2 mi SSW 12.7 mph - N/A   Partly Cloudy
12:55 AM 50.0 °F 44.6 °F 82% 29.65 in 6.2 mi SSW 13.8 mph - N/A   Partly Cloudy
1:00 AM 51 °F 45 °F 72% 29.68 in 22 mi SSW 13.4 mph - -   Partly Cloudy
1:25 AM 51.8 °F 44.6 °F 76% 29.68 in 6.2 mi SSW 15.0 mph - N/A   Mostly Cloudy
1:55 AM 51.8 °F 42.8 °F 71% 29.68 in 6.2 mi SW 15.0 mph 26.5 mph N/A   Scattered Clouds
2:00 AM 52 °F 44 °F 65% 29.70 in 18 mi SSW 15.7 mph - -   Scattered Clouds
2:25 AM 51.8 °F 44.6 °F 76% 29.71 in 6.2 mi SW 16.1 mph - N/A   Mostly Cloudy
2:55 AM 51.8 °F 42.8 °F 71% 29.71 in 6.2 mi SW 15.0 mph - N/A   Mostly Cloudy
3:00 AM 52 °F 43 °F 64% 29.73 in 16 mi SW 15.7 mph - -   Scattered Clouds
3:25 AM 51.8 °F 42.8 °F 71% 29.74 in 6.2 mi SSW 17.3 mph - N/A   Partly Cloudy
3:55 AM 50.0 °F 42.8 °F 76% 29.74 in 6.2 mi SSW 13.8 mph - N/A   Partly Cloudy
4:00 AM 51 °F 43 °F 65% 29.75 in 14 mi SSW 13.4 mph - -   Scattered Clouds
4:25 AM 50.0 °F 42.8 °F 76% 29.74 in 6.2 mi SSW 15.0 mph - N/A   Unknown
4:55 AM 50.0 °F 42.8 °F 76% 29.74 in 6.2 mi SSW 16.1 mph - N/A   Partly Cloudy
5:00 AM 50 °F 43 °F 69% 29.76 in 12 mi SSW 15.7 mph - -   Scattered Clouds
5:25 AM 50.0 °F 42.8 °F 76% 29.74 in 6.2 mi SSW 15.0 mph - N/A   Partly Cloudy
5:55 AM 50.0 °F 42.8 °F 76% 29.74 in 6.2 mi SSW 15.0 mph - N/A   Scattered Clouds
6:00 AM 50 °F 43 °F 68% 29.77 in 11 mi SSW 15.7 mph - -   Scattered Clouds
6:25 AM 50.0 °F 42.8 °F 76% 29.77 in 6.2 mi SSW 15.0 mph - N/A   Unknown
6:55 AM 50.0 °F 42.8 °F 76% 29.77 in 6.2 mi SSW 15.0 mph - N/A   Mostly Cloudy
7:00 AM 50 °F 43 °F 69% 29.78 in 12 mi SSW 15.7 mph - -   Partly Cloudy
7:25 AM 50.0 °F 42.8 °F 76% 29.77 in 6.2 mi SSW 17.3 mph - N/A   Mostly Cloudy
7:27 AM 50.0 °F 42.8 °F 76% 29.77 in 6.2 mi SSW 17.3 mph - N/A   Overcast
7:37 AM 50.0 °F 42.8 °F 76% 29.77 in 6.2 mi SSW 15.0 mph - N/A   Overcast
7:41 AM 50.0 °F 42.8 °F 76% 29.77 in 6.2 mi SSW 16.1 mph - N/A   Overcast
7:55 AM 50.0 °F 42.8 °F 76% 29.77 in 6.2 mi SSW 17.3 mph 28.8 mph N/A   Mostly Cloudy
8:00 AM 51 °F 43 °F 67% 29.78 in 13 mi SSW 17.9 mph - -   Overcast
8:04 AM 50.0 °F 42.8 °F 76% 29.77 in 6.2 mi SSW 17.3 mph 28.8 mph N/A   Overcast
8:25 AM 50.0 °F 42.8 °F 76% 29.77 in 6.2 mi SSW 16.1 mph - N/A   Overcast
8:45 AM 50.0 °F 42.8 °F 76% 29.77 in 6.2 mi SW 13.8 mph - N/A   Overcast
8:55 AM 50.0 °F 42.8 °F 76% 29.77 in 6.2 mi SSW 15.0 mph 26.5 mph N/A   Overcast
9:00 AM 51 °F 43 °F 66% 29.80 in 12 mi SSW 15.7 mph - -   Overcast
9:25 AM 50.0 °F 42.8 °F 76% 29.80 in 6.2 mi SSW 13.8 mph - N/A   Mostly Cloudy
9:55 AM 51.8 °F 42.8 °F 71% 29.80 in 6.2 mi SSW 17.3 mph - N/A   Scattered Clouds
9:59 AM 51.8 °F 42.8 °F 71% 29.80 in 6.2 mi SSW 16.1 mph - N/A   Mostly Cloudy
10:00 AM 51 °F 43 °F 66% 29.81 in 12 mi SSW 15.7 mph - -   Scattered Clouds
10:07 AM 51.8 °F 42.8 °F 71% 29.80 in 6.2 mi SSW 17.3 mph - N/A   Mostly Cloudy
10:15 AM 51.8 °F 42.8 °F 71% 29.80 in 6.2 mi SSW 17.3 mph - N/A   Mostly Cloudy
10:19 AM 51.8 °F 42.8 °F 71% 29.80 in 6.2 mi SSW 17.3 mph - N/A   Mostly Cloudy
10:25 AM 51.8 °F 42.8 °F 71% 29.80 in 6.2 mi SSW 17.3 mph - N/A   Mostly Cloudy
10:55 AM 51.8 °F 42.8 °F 71% 29.80 in 6.2 mi SSW 18.4 mph - N/A   Partly Cloudy
11:00 AM 53 °F 43 °F 60% 29.82 in 13 mi SSW 17.9 mph - -   Scattered Clouds
11:25 AM 53.6 °F 42.8 °F 67% 29.80 in 6.2 mi SSW 19.6 mph 33.4 mph N/A   Partly Cloudy
11:39 AM 53.6 °F 42.8 °F 67% 29.80 in 6.2 mi SW 16.1 mph 31.1 mph N/A   Unknown
11:40 AM 53.6 °F 42.8 °F 67% 29.80 in 6.2 mi SW 16.1 mph 31.1 mph N/A   Unknown
11:55 AM 53.6 °F 42.8 °F 67% 29.80 in 6.2 mi SSW 17.3 mph - N/A   Scattered Clouds
12:00 PM 54 °F 43 °F 57% 29.81 in 13 mi SSW 17.9 mph - -   Scattered Clouds
12:25 PM 53.6 °F 42.8 °F 67% 29.80 in 6.2 mi SW 19.6 mph 33.4 mph N/A   Scattered Clouds
12:55 PM 53.6 °F 42.8 °F 67% 29.80 in 6.2 mi SSW 19.6 mph 33.4 mph N/A   Scattered Clouds
1:00 PM 54 °F 43 °F 58% 29.81 in 14 mi SSW 17.9 mph - -   Partly Cloudy
1:25 PM 53.6 °F 42.8 °F 67% 29.80 in 6.2 mi SW 17.3 mph - N/A   Partly Cloudy
1:55 PM 53.6 °F 44.6 °F 72% 29.80 in 6.2 mi SSW 18.4 mph - N/A   Partly Cloudy
2:00 PM 54 °F 44 °F 59% 29.82 in 19 mi SW 17.9 mph - -   Scattered Clouds
2:25 PM 53.6 °F 44.6 °F 72% 29.80 in 6.2 mi SW 16.1 mph 29.9 mph N/A   Overcast
2:55 PM 55.4 °F 44.6 °F 67% 29.80 in 6.2 mi SW 16.1 mph 28.8 mph N/A   Overcast
3:00 PM 55 °F 44 °F 57% 29.82 in 18 mi SW 15.7 mph - -   Overcast
3:25 PM 55.4 °F 44.6 °F 67% 29.80 in 6.2 mi SW 13.8 mph - N/A   Partly Cloudy
3:55 PM 55.4 °F 44.6 °F 67% 29.80 in 6.2 mi SSW 13.8 mph - N/A   Mostly Cloudy
4:00 PM 54 °F 44 °F 59% 29.83 in 22 mi SW 13.4 mph - -   Scattered Clouds
4:25 PM 55.4 °F 44.6 °F 67% 29.83 in 6.2 mi SW 15.0 mph 31.1 mph N/A   Mostly Cloudy
4:29 PM 53.6 °F 44.6 °F 72% 29.83 in 6.2 mi SW 13.8 mph - N/A   Overcast
4:55 PM 53.6 °F 44.6 °F 72% 29.83 in 6.2 mi SSW 12.7 mph - N/A   Partly Cloudy
5:00 PM 53 °F 44 °F 64% 29.83 in 25 mi SSW 13.4 mph - -   Scattered Clouds
5:25 PM 53.6 °F 44.6 °F 72% 29.83 in 6.2 mi SSW 12.7 mph - N/A   Mostly Cloudy
5:55 PM 53.6 °F 44.6 °F 72% 29.83 in 6.2 mi SSW 13.8 mph - N/A   Overcast
6:00 PM 53 °F 44 °F 63% 29.83 in 28 mi SSW 15.7 mph - -   Mostly Cloudy
6:04 PM 53.6 °F 44.6 °F 72% 29.83 in 6.2 mi SSW 15.0 mph - N/A   Mostly Cloudy
6:25 PM 53.6 °F 44.6 °F 72% 29.83 in 6.2 mi SSW 13.8 mph - N/A   Mostly Cloudy
6:55 PM 53.6 °F 44.6 °F 72% 29.83 in 6.2 mi SSW 13.8 mph - N/A   Overcast
7:00 PM 53 °F 44 °F 62% 29.84 in 28 mi SSW 13.4 mph - -   Partly Cloudy
7:25 PM 51.8 °F 42.8 °F 71% 29.83 in 6.2 mi SSW 12.7 mph - N/A   Overcast
7:55 PM 51.8 °F 42.8 °F 71% 29.83 in 6.2 mi SSW 11.5 mph - N/A   Overcast
8:00 PM 53 °F 44 °F 62% 29.86 in 28 mi SSW 13.4 mph - -   Overcast
8:25 PM 51.8 °F 44.6 °F 76% 29.86 in 6.2 mi SSW 11.5 mph - N/A   Overcast
8:55 PM 51.8 °F 44.6 °F 76% 29.86 in 6.2 mi SSW 9.2 mph - N/A   Overcast
9:00 PM 52 °F 44 °F 68% 29.87 in 28 mi SSW 11.2 mph - -   Partly Cloudy
9:25 PM 51.8 °F 44.6 °F 76% 29.86 in 6.2 mi SSW 10.4 mph - N/A   Mostly Cloudy
9:55 PM 51.8 °F 44.6 °F 76% 29.86 in 6.2 mi SSW 11.5 mph - N/A   Overcast
10:00 PM 51 °F 45 °F 72% 29.88 in 28 mi SSW 11.2 mph - -   Partly Cloudy
10:25 PM 50.0 °F 44.6 °F 82% 29.86 in 6.2 mi SSW 11.5 mph - N/A   Unknown
10:55 PM 50.0 °F 44.6 °F 82% 29.86 in 6.2 mi SSW 10.4 mph - N/A   Unknown
11:00 PM 50 °F 45 °F 77% 29.88 in 28 mi SSW 11.2 mph - -  
11:13 PM 50.0 °F 44.6 °F 82% 29.86 in 6.2 mi SSW 10.4 mph - N/A   Unknown
11:25 PM 48.2 °F 44.6 °F 87% 29.86 in 6.2 mi SSW 10.4 mph - N/A   Unknown
11:55 PM 50.0 °F 44.6 °F 82% 29.86 in 6.2 mi SSW 11.5 mph - N/A   Partly Cloudy